TimeCST,TemperatureF,Dew PointF,Humidity,Sea Level PressureIn,VisibilityMPH,Wind Direction,Wind SpeedMPH,Gust SpeedMPH,PrecipitationIn,Events,Conditions,WindDirDegrees,DateUTC
12:52 AM,28.0,19.9,72,30.23,10.0,Calm,Calm,-,N/A,,Clear,0,2013-01-17 06:52:00
1:52 AM,30.0,23.0,75,30.25,10.0,NW,6.9,-,N/A,,Clear,320,2013-01-17 07:52:00
2:52 AM,33.1,26.1,75,30.28,10.0,NNW,5.8,-,N/A,,Clear,340,2013-01-17 08:52:00
3:52 AM,35.1,28.0,76,30.30,10.0,NNW,9.2,-,N/A,,Clear,340,2013-01-17 09:52:00
4:52 AM,33.1,28.0,82,30.34,10.0,North,10.4,-,N/A,,Clear,350,2013-01-17 10:52:00
5:52 AM,32.0,27.0,82,30.37,10.0,North,8.1,-,N/A,,Clear,350,2013-01-17 11:52:00
6:52 AM,32.0,27.0,82,30.39,10.0,NNW,9.2,-,N/A,,Clear,340,2013-01-17 12:52:00
7:52 AM,32.0,28.0,85,30.42,10.0,NNW,9.2,-,N/A,,Clear,330,2013-01-17 13:52:00
8:52 AM,35.1,28.9,78,30.45,10.0,NNW,8.1,-,N/A,,Clear,340,2013-01-17 14:52:00
9:52 AM,39.9,32.0,73,30.48,10.0,North,13.8,19.6,N/A,,Clear,350,2013-01-17 15:52:00
10:52 AM,45.0,30.9,58,30.49,10.0,North,10.4,-,N/A,,Clear,360,2013-01-17 16:52:00
11:52 AM,48.0,28.9,48,30.48,10.0,North,12.7,-,N/A,,Clear,350,2013-01-17 17:52:00
12:52 PM,50.0,28.0,43,30.47,10.0,North,11.5,-,N/A,,Clear,350,2013-01-17 18:52:00
1:52 PM,51.1,28.0,41,30.45,10.0,NNE,10.4,18.4,N/A,,Clear,20,2013-01-17 19:52:00
2:52 PM,52.0,28.0,40,30.45,10.0,NNE,10.4,-,N/A,,Clear,20,2013-01-17 20:52:00
3:52 PM,52.0,27.0,38,30.45,10.0,Variable,5.8,-,N/A,,Clear,0,2013-01-17 21:52:00
4:52 PM,50.0,28.0,43,30.46,10.0,NNE,3.5,-,N/A,,Clear,20,2013-01-17 22:52:00
5:52 PM,46.0,28.0,50,30.48,10.0,NE,5.8,-,N/A,,Clear,50,2013-01-17 23:52:00
6:52 PM,37.0,26.1,65,30.50,10.0,SE,3.5,-,N/A,,Clear,130,2013-01-18 00:52:00
7:52 PM,35.1,26.1,70,30.49,10.0,East,3.5,-,N/A,,Clear,100,2013-01-18 01:52:00
8:52 PM,33.1,25.0,72,30.49,10.0,South,4.6,-,N/A,,Clear,180,2013-01-18 02:52:00
9:52 PM,33.1,26.1,75,30.49,10.0,SSE,3.5,-,N/A,,Clear,160,2013-01-18 03:52:00
10:52 PM,32.0,25.0,75,30.48,10.0,South,4.6,-,N/A,,Clear,180,2013-01-18 04:52:00
11:52 PM,32.0,25.0,75,30.48,10.0,SSE,4.6,-,N/A,,Clear,160,2013-01-18 05:52:00